Terug naar catalogus

STPSAT-6

ActiefWetenschapGEO
NORAD 49817·PAYLOAD·🇺🇸 United States

Gelanceerd Dec 7, 2021 vanaf Cape Canaveral Space Force Station

Loading…

TLE

VersSource: Space-Track

Epoch: Sep 14, 2026, 13:16 UTC

1 49817U 21118A   26257.55295747 -.00000052  00000-0  00000-0 0  9996
2 49817   0.5459  84.2490 0000931 212.9934 143.4324  1.00271933 17469

Volg STPSAT-6 in realtime met AllMySat

Download on the App Store